Liberal, KS

4:13 AM CDT on September 23, 2019 (GMT -0500)
Liberal Municipal

Weather History for KLBL - August, 2019

Change the Weather History Date:

Monday, August 19, 2019

  Actual Average Record
Temperature  
Mean Temperature 85 °F -  
Max Temperature 102 °F 92 °F 104 °F (2011)
Min Temperature 68 °F 64 °F 52 °F (1956)
Cooling Degree Days 20    
Growing Degree Days 35 (Base 50)    
Moisture  
Dew Point 64 °F    
Average Humidity 58    
Maximum Humidity 93    
Minimum Humidity 24    
Precipitation  
Precipitation 0.08 in - - ()
Sea Level Pressure  
Sea Level Pressure 29.89 in    
Wind  
Wind Speed 10 mph ()    
Max Wind Speed 31 mph    
Max Gust Speed 43 mph    
Visibility 9.9 miles    
Events Rain , Thunderstorm    
Averages and records for this station are not official NWS values.
T = Trace of Precipitation, MM = Missing Value Source: Averaged Metar Reports

Daily Weather History Graph

Daily Weather History Graph

Search for Another Location

Airport or City:

Astronomy

Aug. 19, 2019 Rise Set
Actual Time 7:03 AM CDT 8:30 PM CDT
Civil Twilight 6:36 AM CDT 8:57 PM CDT
Nautical Twilight 6:03 AM CDT 9:30 PM CDT
Astronomical Twilight 5:29 AM CDT 10:04 PM CDT
Moon 10:58 PM CDT (8/19) 10:42 AM CDT (8/19)
Length of Visible Light 14h 21m
Length of Day
13h 26m
Waning Gibbous, 85% of the Moon is Illuminated
Aug 19
Waning Gibbous
Aug 23
Last Quarter
Aug 30
New
Sep 5
First Quarter
Sep 13
Full

Hourly Weather History & Observations

Time (CDT) Temp. Heat Index Dew Point Humidity Pressure Visibility Wind Dir Wind Speed Gust Speed Precip Events Conditions
12:56 AM 75.9 °F - 68.0 °F 76% 29.86 in 10.0 mi ESE 10.4 mph - N/A   Clear
1:56 AM 73.9 °F - 68.0 °F 82% 29.86 in 10.0 mi SE 8.1 mph - N/A   Clear
2:56 AM 71.1 °F - 68.0 °F 90% 29.85 in 10.0 mi South 6.9 mph - N/A   Clear
3:56 AM 70.0 °F - 66.9 °F 90% 29.85 in 10.0 mi SSW 6.9 mph - N/A   Clear
4:56 AM 69.1 °F - 66.9 °F 93% 29.85 in 10.0 mi South 6.9 mph - N/A   Clear
5:56 AM 69.1 °F - 64.0 °F 84% 29.86 in 10.0 mi SW 6.9 mph - N/A   Clear
6:56 AM 68.0 °F - 63.0 °F 84% 29.87 in 10.0 mi WSW 4.6 mph - N/A   Clear
7:56 AM 69.1 °F - 64.9 °F 87% 29.88 in 10.0 mi Calm Calm - N/A   Clear
8:56 AM 77.0 °F - 64.9 °F 66% 29.89 in 10.0 mi SW 3.5 mph - N/A   Clear
9:56 AM 82.0 °F 83.4 °F 64.0 °F 54% 29.90 in 10.0 mi SW 6.9 mph - N/A   Clear
10:56 AM 86.0 °F 87.6 °F 64.9 °F 49% 29.91 in 10.0 mi SSW 6.9 mph - N/A   Clear
11:56 AM 90.0 °F 91.7 °F 64.9 °F 43% 29.90 in 10.0 mi SW 6.9 mph - N/A   Clear
12:56 PM 95.0 °F 97.0 °F 64.0 °F 36% 29.88 in 10.0 mi SSE 9.2 mph - N/A   Clear
1:56 PM 98.1 °F 101.8 °F 66.0 °F 35% 29.87 in 10.0 mi South 10.4 mph 19.6 mph N/A   Clear
2:56 PM 100.0 °F 103.6 °F 64.9 °F 32% 29.85 in 10.0 mi SSW 10.4 mph - N/A   Clear
3:56 PM 102.9 °F 103.6 °F 60.1 °F 24% 29.81 in 10.0 mi SSW 15.0 mph - N/A   Clear
4:56 PM 99.0 °F 102.9 °F 66.0 °F 34% 29.79 in 10.0 mi SSE 23.0 mph 27.6 mph N/A   Partly Cloudy
6:14 PM 95.0 °F 94.4 °F 59.0 °F 30% 29.93 in 9.0 mi South 23.0 mph 32.2 mph N/A   Clear
6:26 PM 84.2 °F 85.6 °F 64.4 °F 51% 29.93 in 7.0 mi South 29.9 mph 42.6 mph 0.06 in Rain , Thunderstorm Thunderstorms and Rain
6:56 PM 80.1 °F 81.7 °F 64.0 °F 58% 29.87 in 10.0 mi South 29.9 mph 38.0 mph 0.08 in Rain , Thunderstorm Light Thunderstorms and Rain
7:56 PM 82.0 °F 83.0 °F 62.1 °F 51% 29.92 in 10.0 mi South 25.3 mph 32.2 mph N/A Rain , Thunderstorm Light Rain
8:00 PM 82.4 °F 82.9 °F 60.8 °F 48% 30.02 in 10.0 mi South 31.1 mph 36.8 mph 0.00 in Rain , Thunderstorm Light Rain
8:11 PM 82.4 °F 82.5 °F 59.0 °F 45% 30.04 in 10.0 mi SSE 16.1 mph 25.3 mph 0.00 in Rain Light Rain
8:56 PM 80.1 °F 81.9 °F 64.9 °F 60% 29.95 in 10.0 mi WNW 17.3 mph - 0.00 in Rain Light Rain
9:17 PM 75.2 °F - 62.6 °F 65% 30.02 in 10.0 mi NW 12.7 mph - 0.00 in Rain Light Rain
9:56 PM 79.0 °F - 62.1 °F 56% 29.89 in 10.0 mi NW 11.5 mph - 0.00 in   Clear
10:56 PM 81.0 °F 81.7 °F 61.0 °F 50% 29.87 in 10.0 mi South 13.8 mph - N/A   Clear
11:56 PM 80.1 °F 81.2 °F 62.1 °F 54% 29.87 in 10.0 mi SSE 15.0 mph - N/A   Clear